Location: Corte Bragagnani
(45.3000°N, 11.1000°E)
Time: 19:27:39
(UTC+00:00)

Abrixas rocket - Pass Details

Date: 09 April 2020
Orbit: 344 x 351 km, 48.4° (Epoch: 02 June)

Event Time Altitude Azimuth Distance (km) Brightness Sun altitude
Rises 19:51:48 0° 289° (WNW) 2,169 7.3 -19.7°
Reaches altitude 10° 19:53:51 10° 282° (WNW) 1,326 5.8 -20.0°
Enters shadow 19:56:07 38° 244° (WSW) 564 3.1 -20.3°
